CZ-6A DEB, 55895

Orbit data source: Space-Track

CZ-6A DEB, 55895 is space debris in SSO originally from a launch on Fri, 11 Nov 2022 UTC launched from the Taiyaun Space Center, China (TSC). Debris objects in space refer to the collection of defunct objects orbiting the Earth. Examples of debris include non-operational satellites, rocket bodies, and fragments generated from explosions, collisions, or faulty payload assembly.

Loading next visibility...
Identifier
55895, 2022-151AAT
Orbit
SSO
Country
Flag of CNCN / PRC
Related business
Manufacturer
SAST
Mission
Spacecraft
Bus & Motor
Unknown
Mass
Unknown
Launch date (UTC)
2022-11-11 (4 years ago)
Launch vehicle
Unknown
Launch site
Taiyaun Space Center, China (TSC)
Object type
Payload
Rocket body
Debris
Shape & HBR
Unknown shape, 0.1 m
Radar Cross Section
Small (<0.1 m²)

Expand to show TLE details & history
Last TLE update: 2 days ago

TLE from 2 days ago
0 CZ-6A DEB
1 55895U 22151AAT 26171.40390622  .00010266  00000-0  14085-2 0  9991
2 55895  98.5875 228.1256 0088381 297.0372  62.1835 14.75915642185159
Epoch: 2026-06-20T09:41Z
TLE epoch observation values (Epoch: 2026-06-20T09:41:37.497Z)
Latitude
-0.00003°
Longitude
174.10035°
Altitude
616.713 km
Speed
7.566 km/s
True Right ascension
15h 12m 30s
True Declination
0° 00' 00"
Sunlit
Object was in full shadow at epoch
Visualization orbit readout
Latitude
Unknown
Longitude
Unknown
Altitude
Unknown
Speed
Unknown
Apparent Right ascension
Unknown
Apparent Declination
Unknown
Sunlit
N/A
Visualization observer readout
Local Sidereal Time
21:25:24
Azimuth
Unknown
Elevation
Unknown
Doppler factor
Unknown
Orbital elements
Apogee altitude
701.345 km
Perigee altitude
577.303 km
Semi-major axis
7,017.461 km
Eccentricity
0.00884
Inclination
98.5875°
RAAN
228.1256°
Arg. of periapsis
297.0372°
True anomaly
63.08385°
Mean anomaly
62.1835°
Eccentric anomaly
62.63321°
Mean motion
3.6921 °/min
Orbital period
97.51 mins
BSTAR
0.0014085
Loading maneuver chart data...
Computing Atmospheric mass density...
Loading historical data...
Loading historical data...
Loading historical data...
Loading historical data...
Loading historical data...
Loading historical data...
Loading historical data...

Documentation

Showing up to 5 results
|